Time,TemperatureF,DewpointF,PressureIn,WindDirection,WindDirectionDegrees,WindSpeedMPH,WindSpeedGustMPH,Humidity,HourlyPrecipIn,Conditions,Clouds,dailyrainin,SoftwareType,DateUTC
2013-04-19 00:04:00,35.9,32.1,29.57,West,277,18.0,18.0,86,0.00,,,0.75,Wunderground v.1.15,2013-04-19 05:04:00,
2013-04-19 00:10:00,35.8,32.0,29.57,WNW,301,7.0,12.0,86,0.00,,,0.00,Wunderground v.1.15,2013-04-19 05:10:00,
2013-04-19 00:15:00,35.7,31.9,29.57,WNW,284,16.0,20.0,86,0.00,,,0.00,Wunderground v.1.15,2013-04-19 05:15:00,
2013-04-19 00:20:00,35.7,31.9,29.57,West,266,5.0,14.0,86,0.00,,,0.00,Wunderground v.1.15,2013-04-19 05:20:00,
2013-04-19 00:26:00,35.6,31.5,29.56,West,275,5.0,14.0,85,0.00,,,0.00,Wunderground v.1.15,2013-04-19 05:26:00,
2013-04-19 00:31:00,35.6,31.5,29.56,WNW,290,15.0,15.0,85,0.00,,,0.00,Wunderground v.1.15,2013-04-19 05:31:00,
2013-04-19 00:36:00,35.7,31.6,29.56,WNW,284,6.0,15.0,85,0.00,,,0.00,Wunderground v.1.15,2013-04-19 05:36:00,
2013-04-19 00:42:00,35.6,31.5,29.56,West,263,9.0,19.0,85,0.00,,,0.00,Wunderground v.1.15,2013-04-19 05:42:00,
2013-04-19 00:47:00,35.5,31.4,29.57,West,276,10.0,19.0,85,0.00,,,0.00,Wunderground v.1.15,2013-04-19 05:47:00,
2013-04-19 00:52:00,35.5,31.7,29.56,WNW,292,12.0,13.0,86,0.00,,,0.00,Wunderground v.1.15,2013-04-19 05:52:00,
2013-04-19 00:58:00,35.4,31.6,29.56,WNW,299,14.0,23.0,86,0.00,,,0.00,Wunderground v.1.15,2013-04-19 05:58:00,
2013-04-19 01:03:00,35.3,31.5,29.56,WNW,292,11.0,17.0,86,0.00,,,0.00,Wunderground v.1.15,2013-04-19 06:03:00,
2013-04-19 01:08:00,35.3,31.5,29.56,WNW,284,8.0,17.0,86,0.00,,,0.00,Wunderground v.1.15,2013-04-19 06:08:00,
2013-04-19 01:14:00,35.2,31.4,29.56,WNW,296,8.0,19.0,86,0.00,,,0.00,Wunderground v.1.15,2013-04-19 06:14:00,
2013-04-19 01:19:00,35.2,31.4,29.56,WNW,288,16.0,19.0,86,0.00,,,0.00,Wunderground v.1.15,2013-04-19 06:19:00,
2013-04-19 01:24:00,35.3,31.5,29.55,WNW,291,13.0,15.0,86,0.00,,,0.00,Wunderground v.1.15,2013-04-19 06:24:00,
2013-04-19 01:30:00,35.3,31.5,29.55,WNW,284,12.0,13.0,86,0.00,,,0.00,Wunderground v.1.15,2013-04-19 06:30:00,
2013-04-19 01:35:00,35.2,31.4,29.55,West,276,17.0,22.0,86,0.00,,,0.00,Wunderground v.1.15,2013-04-19 06:35:00,
2013-04-19 01:40:00,35.2,31.4,29.55,WNW,295,16.0,16.0,86,0.00,,,0.00,Wunderground v.1.15,2013-04-19 06:40:00,
2013-04-19 01:46:00,35.1,31.3,29.56,WNW,289,15.0,16.0,86,0.00,,,0.00,Wunderground v.1.15,2013-04-19 06:46:00,
2013-04-19 01:51:00,35.0,31.5,29.56,West,264,7.0,14.0,87,0.00,,,0.00,Wunderground v.1.15,2013-04-19 06:51:00,
2013-04-19 01:56:00,35.0,31.5,29.55,West,263,7.0,22.0,87,0.00,,,0.00,Wunderground v.1.15,2013-04-19 06:56:00,
2013-04-19 02:01:00,35.1,31.6,29.55,WNW,285,10.0,12.0,87,0.00,,,0.00,Wunderground v.1.15,2013-04-19 07:01:00,
2013-04-19 02:06:00,35.1,31.3,29.55,West,281,10.0,17.0,86,0.00,,,0.00,Wunderground v.1.15,2013-04-19 07:06:00,
2013-04-19 02:11:00,35.1,31.3,29.56,West,271,9.0,15.0,86,0.00,,,0.00,Wunderground v.1.15,2013-04-19 07:11:00,
2013-04-19 02:16:00,35.0,31.5,29.55,WNW,287,12.0,18.0,87,0.00,,,0.00,Wunderground v.1.15,2013-04-19 07:16:00,
2013-04-19 02:21:00,34.9,31.4,29.55,West,277,4.0,9.0,87,0.00,,,0.00,Wunderground v.1.15,2013-04-19 07:21:00,
2013-04-19 02:26:00,34.9,31.7,29.55,WNW,294,9.0,18.0,88,0.00,,,0.00,Wunderground v.1.15,2013-04-19 07:26:00,
2013-04-19 02:31:00,34.9,31.7,29.55,West,263,6.0,15.0,88,0.00,,,0.00,Wunderground v.1.15,2013-04-19 07:31:00,
2013-04-19 02:36:00,34.9,31.7,29.55,WNW,294,7.0,15.0,88,0.00,,,0.00,Wunderground v.1.15,2013-04-19 07:36:00,
2013-04-19 02:42:00,34.8,31.6,29.55,WSW,239,7.0,12.0,88,0.00,,,0.00,Wunderground v.1.15,2013-04-19 07:42:00,
2013-04-19 02:47:00,34.6,31.4,29.55,West,280,9.0,21.0,88,0.00,,,0.00,Wunderground v.1.15,2013-04-19 07:47:00,
2013-04-19 02:52:00,34.7,31.5,29.55,West,266,7.0,18.0,88,0.00,,,0.00,Wunderground v.1.15,2013-04-19 07:52:00,
2013-04-19 02:57:00,34.6,31.4,29.55,West,262,14.0,23.0,88,0.00,,,0.00,Wunderground v.1.15,2013-04-19 07:57:00,
2013-04-19 03:02:00,34.7,31.5,29.55,West,281,11.0,19.0,88,0.00,,,0.00,Wunderground v.1.15,2013-04-19 08:02:00,
2013-04-19 03:07:00,34.7,31.2,29.55,WNW,286,13.0,25.0,87,0.00,,,0.00,Wunderground v.1.15,2013-04-19 08:07:00,
2013-04-19 03:12:00,34.8,31.3,29.55,WNW,296,9.0,20.0,87,0.00,,,0.00,Wunderground v.1.15,2013-04-19 08:12:00,
2013-04-19 03:17:00,34.8,31.3,29.55,WSW,247,12.0,23.0,87,0.00,,,0.00,Wunderground v.1.15,2013-04-19 08:17:00,
2013-04-19 03:23:00,34.8,31.3,29.55,West,276,9.0,21.0,87,0.00,,,0.00,Wunderground v.1.15,2013-04-19 08:23:00,
2013-04-19 03:28:00,34.8,31.0,29.55,WNW,299,7.0,22.0,86,0.00,,,0.00,Wunderground v.1.15,2013-04-19 08:28:00,
2013-04-19 03:33:00,34.8,31.0,29.55,WSW,254,10.0,23.0,86,0.00,,,0.00,Wunderground v.1.15,2013-04-19 08:33:00,
2013-04-19 03:38:00,34.8,31.0,29.56,WNW,302,10.0,24.0,86,0.00,,,0.00,Wunderground v.1.15,2013-04-19 08:38:00,
2013-04-19 03:43:00,34.8,31.0,29.55,WNW,283,19.0,19.0,86,0.00,,,0.00,Wunderground v.1.15,2013-04-19 08:43:00,
2013-04-19 03:48:00,34.8,31.0,29.56,WNW,298,15.0,24.0,86,0.00,,,0.00,Wunderground v.1.15,2013-04-19 08:48:00,
2013-04-19 03:53:00,34.8,31.0,29.56,West,269,9.0,19.0,86,0.00,,,0.00,Wunderground v.1.15,2013-04-19 08:53:00,
2013-04-19 03:58:00,34.8,31.0,29.56,West,276,5.0,23.0,86,0.00,,,0.00,Wunderground v.1.15,2013-04-19 08:58:00,
2013-04-19 04:03:00,34.7,30.9,29.55,WNW,283,11.0,21.0,86,0.00,,,0.00,Wunderground v.1.15,2013-04-19 09:03:00,
2013-04-19 04:08:00,34.8,31.0,29.56,West,271,11.0,21.0,86,0.00,,,0.00,Wunderground v.1.15,2013-04-19 09:08:00,
2013-04-19 04:13:00,34.8,31.0,29.56,West,270,17.0,20.0,86,0.00,,,0.00,Wunderground v.1.15,2013-04-19 09:13:00,
2013-04-19 04:18:00,34.8,31.0,29.56,WNW,296,19.0,22.0,86,0.00,,,0.00,Wunderground v.1.15,2013-04-19 09:18:00,
2013-04-19 04:23:00,34.8,31.0,29.56,WNW,285,15.0,19.0,86,0.00,,,0.00,Wunderground v.1.15,2013-04-19 09:23:00,
2013-04-19 04:28:00,34.7,30.9,29.56,WNW,292,15.0,21.0,86,0.00,,,0.00,Wunderground v.1.15,2013-04-19 09:28:00,
2013-04-19 04:33:00,34.7,30.9,29.56,WNW,286,14.0,22.0,86,0.00,,,0.00,Wunderground v.1.15,2013-04-19 09:33:00,
2013-04-19 04:38:00,34.6,30.8,29.56,WNW,298,9.0,23.0,86,0.00,,,0.00,Wunderground v.1.15,2013-04-19 09:38:00,
2013-04-19 04:43:00,34.6,30.8,29.56,WNW,283,18.0,22.0,86,0.00,,,0.00,Wunderground v.1.15,2013-04-19 09:43:00,
2013-04-19 04:48:00,34.6,30.8,29.57,WNW,286,4.0,22.0,86,0.00,,,0.00,Wunderground v.1.15,2013-04-19 09:48:00,
2013-04-19 04:54:00,34.5,30.7,29.57,WNW,287,16.0,24.0,86,0.00,,,0.00,Wunderground v.1.15,2013-04-19 09:54:00,
2013-04-19 04:59:00,34.5,30.7,29.57,WNW,297,27.0,27.0,86,0.00,,,0.00,Wunderground v.1.15,2013-04-19 09:59:00,
2013-04-19 05:04:00,34.5,30.7,29.57,NW,304,20.0,22.0,86,0.00,,,0.00,Wunderground v.1.15,2013-04-19 10:04:00,
2013-04-19 05:09:00,34.5,30.7,29.57,West,279,12.0,27.0,86,0.00,,,0.00,Wunderground v.1.15,2013-04-19 10:09:00,
2013-04-19 05:14:00,34.5,30.7,29.57,WNW,293,21.0,27.0,86,0.00,,,0.00,Wunderground v.1.15,2013-04-19 10:14:00,
2013-04-19 05:19:00,34.4,30.6,29.57,WNW,299,17.0,28.0,86,0.00,,,0.00,Wunderground v.1.15,2013-04-19 10:19:00,
2013-04-19 05:24:00,34.4,30.6,29.57,WNW,292,21.0,23.0,86,0.00,,,0.00,Wunderground v.1.15,2013-04-19 10:24:00,
2013-04-19 05:29:00,34.4,30.6,29.57,WNW,297,10.0,27.0,86,0.00,,,0.00,Wunderground v.1.15,2013-04-19 10:29:00,
2013-04-19 05:34:00,34.4,30.6,29.57,NW,305,7.0,19.0,86,0.00,,,0.00,Wunderground v.1.15,2013-04-19 10:34:00,
2013-04-19 05:40:00,34.4,30.6,29.57,WNW,300,16.0,26.0,86,0.00,,,0.00,Wunderground v.1.15,2013-04-19 10:40:00,
2013-04-19 05:45:00,34.4,30.6,29.57,WNW,294,19.0,28.0,86,0.00,,,0.00,Wunderground v.1.15,2013-04-19 10:45:00,
2013-04-19 05:50:00,34.4,30.6,29.57,WNW,288,19.0,28.0,86,0.00,,,0.00,Wunderground v.1.15,2013-04-19 10:50:00,
2013-04-19 05:55:00,34.4,30.6,29.57,WNW,286,17.0,24.0,86,0.00,,,0.00,Wunderground v.1.15,2013-04-19 10:55:00,
2013-04-19 05:59:00,34.4,30.6,29.58,WSW,256,9.0,24.0,86,0.00,,,0.00,Wunderground v.1.15,2013-04-19 10:59:00,
2013-04-19 06:04:00,34.4,30.6,29.58,WNW,300,10.0,24.0,86,0.00,,,0.00,Wunderground v.1.15,2013-04-19 11:04:00,
2013-04-19 06:09:00,34.3,30.5,29.58,West,261,10.0,24.0,86,0.00,,,0.00,Wunderground v.1.15,2013-04-19 11:09:00,
2013-04-19 06:14:00,34.3,30.5,29.58,West,277,10.0,25.0,86,0.00,,,0.00,Wunderground v.1.15,2013-04-19 11:14:00,
2013-04-19 06:19:00,34.3,30.5,29.58,WNW,296,21.0,25.0,86,0.00,,,0.00,Wunderground v.1.15,2013-04-19 11:19:00,
2013-04-19 06:24:00,34.3,30.5,29.59,NW,304,14.0,22.0,86,0.00,,,0.00,Wunderground v.1.15,2013-04-19 11:24:00,
2013-04-19 06:29:00,34.2,30.4,29.58,WNW,286,19.0,25.0,86,0.00,,,0.00,Wunderground v.1.15,2013-04-19 11:29:00,
2013-04-19 06:35:00,34.1,30.1,29.58,WNW,284,12.0,22.0,85,0.00,,,0.00,Wunderground v.1.15,2013-04-19 11:35:00,
2013-04-19 06:40:00,34.1,30.4,29.58,WNW,284,13.0,14.0,86,0.00,,,0.00,Wunderground v.1.15,2013-04-19 11:40:00,
2013-04-19 06:45:00,34.1,30.1,29.59,WNW,294,20.0,21.0,85,0.00,,,0.00,Wunderground v.1.15,2013-04-19 11:45:00,
2013-04-19 06:50:00,34.0,30.0,29.59,West,260,18.0,19.0,85,0.00,,,0.00,Wunderground v.1.15,2013-04-19 11:50:00,
2013-04-19 06:55:00,34.0,30.3,29.59,WNW,294,18.0,22.0,86,0.00,,,0.00,Wunderground v.1.15,2013-04-19 11:55:00,
2013-04-19 07:00:00,34.0,30.3,29.59,WNW,303,18.0,18.0,86,0.00,,,0.00,Wunderground v.1.15,2013-04-19 12:00:00,
2013-04-19 07:05:00,34.0,30.3,29.60,West,274,21.0,25.0,86,0.00,,,0.00,Wunderground v.1.15,2013-04-19 12:05:00,
2013-04-19 07:10:00,34.0,30.0,29.60,WNW,284,17.0,17.0,85,0.00,,,0.00,Wunderground v.1.15,2013-04-19 12:10:00,
2013-04-19 07:15:00,34.0,30.0,29.60,WNW,292,13.0,24.0,85,0.00,,,0.00,Wunderground v.1.15,2013-04-19 12:15:00,
2013-04-19 07:20:00,34.1,29.8,29.60,WNW,294,16.0,16.0,84,0.00,,,0.00,Wunderground v.1.15,2013-04-19 12:20:00,
2013-04-19 07:25:00,34.1,29.8,29.60,West,267,12.0,23.0,84,0.00,,,0.00,Wunderground v.1.15,2013-04-19 12:25:00,
2013-04-19 07:30:00,34.0,29.7,29.60,West,263,11.0,15.0,84,0.00,,,0.00,Wunderground v.1.15,2013-04-19 12:30:00,
2013-04-19 07:35:00,34.0,29.7,29.60,West,273,17.0,27.0,84,0.00,,,0.00,Wunderground v.1.15,2013-04-19 12:35:00,
2013-04-19 07:40:00,34.0,29.7,29.60,WNW,287,13.0,19.0,84,0.00,,,0.00,Wunderground v.1.15,2013-04-19 12:40:00,
2013-04-19 07:45:00,34.1,29.8,29.61,NW,306,13.0,21.0,84,0.00,,,0.00,Wunderground v.1.15,2013-04-19 12:45:00,
2013-04-19 07:50:00,34.0,29.7,29.60,WNW,282,19.0,19.0,84,0.00,,,0.00,Wunderground v.1.15,2013-04-19 12:50:00,
2013-04-19 07:55:00,34.0,29.7,29.60,WNW,286,13.0,27.0,84,0.00,,,0.00,Wunderground v.1.15,2013-04-19 12:55:00,
2013-04-19 08:00:00,34.0,29.7,29.60,WNW,299,22.0,23.0,84,0.00,,,0.00,Wunderground v.1.15,2013-04-19 13:00:00,
2013-04-19 08:05:00,34.0,29.7,29.61,West,261,10.0,26.0,84,0.00,,,0.00,Wunderground v.1.15,2013-04-19 13:05:00,
2013-04-19 08:10:00,34.1,29.8,29.61,WNW,293,15.0,21.0,84,0.00,,,0.00,Wunderground v.1.15,2013-04-19 13:10:00,
2013-04-19 08:15:00,34.2,30.2,29.61,WNW,302,22.0,25.0,85,0.00,,,0.00,Wunderground v.1.15,2013-04-19 13:15:00,
2013-04-19 08:20:00,34.3,30.3,29.61,West,281,16.0,17.0,85,0.00,,,0.00,Wunderground v.1.15,2013-04-19 13:20:00,
2013-04-19 08:25:00,34.4,30.4,29.61,West,264,16.0,24.0,85,0.00,,,0.00,Wunderground v.1.15,2013-04-19 13:25:00,
2013-04-19 08:30:00,34.4,30.4,29.62,WNW,297,20.0,20.0,85,0.00,,,0.00,Wunderground v.1.15,2013-04-19 13:30:00,
2013-04-19 08:35:00,34.4,30.4,29.61,WNW,286,14.0,23.0,85,0.00,,,0.00,Wunderground v.1.15,2013-04-19 13:35:00,
2013-04-19 08:40:00,34.4,30.4,29.61,West,277,14.0,20.0,85,0.00,,,0.00,Wunderground v.1.15,2013-04-19 13:40:00,
2013-04-19 08:46:00,34.5,30.5,29.62,WNW,288,19.0,24.0,85,0.00,,,0.00,Wunderground v.1.15,2013-04-19 13:46:00,
2013-04-19 08:51:00,34.4,30.1,29.62,WNW,292,17.0,24.0,84,0.00,,,0.00,Wunderground v.1.15,2013-04-19 13:51:00,
2013-04-19 08:56:00,34.4,30.1,29.62,WNW,294,18.0,27.0,84,0.00,,,0.00,Wunderground v.1.15,2013-04-19 13:56:00,
2013-04-19 09:01:00,34.4,30.1,29.62,West,281,19.0,27.0,84,0.00,,,0.00,Wunderground v.1.15,2013-04-19 14:01:00,
2013-04-19 09:06:00,34.6,30.3,29.63,WNW,284,13.0,27.0,84,0.00,,,0.00,Wunderground v.1.15,2013-04-19 14:06:00,
2013-04-19 09:11:00,34.7,30.4,29.62,WNW,298,15.0,18.0,84,0.00,,,0.00,Wunderground v.1.15,2013-04-19 14:11:00,
2013-04-19 09:16:00,34.4,29.8,29.63,WNW,297,13.0,26.0,83,0.00,,,0.00,Wunderground v.1.15,2013-04-19 14:16:00,
2013-04-19 09:21:00,34.4,30.1,29.63,WNW,302,21.0,25.0,84,0.00,,,0.00,Wunderground v.1.15,2013-04-19 14:21:00,
2013-04-19 09:26:00,34.4,29.8,29.63,WNW,287,18.0,25.0,83,0.00,,,0.00,Wunderground v.1.15,2013-04-19 14:26:00,
2013-04-19 09:31:00,34.5,29.9,29.63,West,274,25.0,25.0,83,0.00,,,0.00,Wunderground v.1.15,2013-04-19 14:31:00,
2013-04-19 09:36:00,34.6,29.7,29.64,WNW,300,20.0,32.0,82,0.00,,,0.00,Wunderground v.1.15,2013-04-19 14:36:00,
2013-04-19 09:41:00,34.5,29.6,29.64,WNW,292,14.0,21.0,82,0.00,,,0.00,Wunderground v.1.15,2013-04-19 14:41:00,
2013-04-19 09:46:00,34.6,30.0,29.64,WNW,299,21.0,22.0,83,0.00,,,0.00,Wunderground v.1.15,2013-04-19 14:46:00,
2013-04-19 09:51:00,34.4,29.8,29.65,WNW,298,24.0,25.0,83,0.00,,,0.00,Wunderground v.1.15,2013-04-19 14:51:00,
2013-04-19 09:56:00,34.4,29.5,29.65,WNW,291,25.0,28.0,82,0.00,,,0.00,Wunderground v.1.15,2013-04-19 14:56:00,
2013-04-19 10:01:00,34.4,29.5,29.65,WNW,299,17.0,29.0,82,0.00,,,0.00,Wunderground v.1.15,2013-04-19 15:01:00,
2013-04-19 10:06:00,34.4,29.5,29.65,WNW,290,21.0,32.0,82,0.00,,,0.00,Wunderground v.1.15,2013-04-19 15:06:00,
2013-04-19 10:11:00,34.6,29.7,29.65,WNW,293,21.0,23.0,82,0.00,,,0.00,Wunderground v.1.15,2013-04-19 15:11:00,
2013-04-19 10:16:00,34.8,30.2,29.66,West,260,16.0,27.0,83,0.00,,,0.00,Wunderground v.1.15,2013-04-19 15:16:00,
2013-04-19 10:21:00,34.6,29.4,29.66,WNW,292,22.0,31.0,81,0.00,,,0.00,Wunderground v.1.15,2013-04-19 15:21:00,
2013-04-19 10:26:00,34.7,29.5,29.66,WNW,285,24.0,31.0,81,0.00,,,0.00,Wunderground v.1.15,2013-04-19 15:26:00,
2013-04-19 10:31:00,35.0,29.8,29.67,WNW,290,18.0,25.0,81,0.00,,,0.00,Wunderground v.1.15,2013-04-19 15:31:00,
2013-04-19 10:36:00,35.1,29.9,29.67,WNW,287,22.0,30.0,81,0.00,,,0.00,Wunderground v.1.15,2013-04-19 15:36:00,
2013-04-19 10:41:00,35.3,30.4,29.68,WNW,296,19.0,23.0,82,0.00,,,0.00,Wunderground v.1.15,2013-04-19 15:41:00,
2013-04-19 10:46:00,35.6,30.6,29.68,WNW,292,19.0,23.0,82,0.00,,,0.00,Wunderground v.1.15,2013-04-19 15:46:00,
2013-04-19 10:51:00,35.5,29.6,29.68,WNW,292,23.0,28.0,79,0.00,,,0.00,Wunderground v.1.15,2013-04-19 15:51:00,
2013-04-19 10:56:00,35.5,29.9,29.68,West,266,15.0,28.0,80,0.00,,,0.00,Wunderground v.1.15,2013-04-19 15:56:00,
2013-04-19 11:01:00,35.5,29.9,29.68,WNW,302,20.0,27.0,80,0.00,,,0.00,Wunderground v.1.15,2013-04-19 16:01:00,
2013-04-19 11:06:00,35.5,29.9,29.68,WNW,285,17.0,29.0,80,0.00,,,0.00,Wunderground v.1.15,2013-04-19 16:06:00,
2013-04-19 11:11:00,35.4,29.8,29.68,WNW,288,14.0,22.0,80,0.00,,,0.00,Wunderground v.1.15,2013-04-19 16:11:00,
2013-04-19 11:16:00,35.2,29.6,29.69,WNW,299,18.0,28.0,80,0.00,,,0.00,Wunderground v.1.15,2013-04-19 16:16:00,
2013-04-19 11:21:00,35.3,29.7,29.69,WNW,294,13.0,27.0,80,0.00,,,0.00,Wunderground v.1.15,2013-04-19 16:21:00,
2013-04-19 11:26:00,35.1,29.6,29.69,WNW,290,22.0,29.0,80,0.00,,,0.00,Wunderground v.1.15,2013-04-19 16:26:00,
2013-04-19 11:31:00,35.4,29.8,29.69,WNW,290,19.0,26.0,80,0.00,,,0.00,Wunderground v.1.15,2013-04-19 16:31:00,
2013-04-19 11:36:00,35.5,29.6,29.69,WNW,292,22.0,30.0,79,0.00,,,0.00,Wunderground v.1.15,2013-04-19 16:36:00,
2013-04-19 11:41:00,35.7,29.2,29.69,WNW,303,25.0,31.0,77,0.00,,,0.00,Wunderground v.1.15,2013-04-19 16:41:00,
2013-04-19 11:46:00,35.9,30.3,29.69,West,281,21.0,31.0,80,0.00,,,0.00,Wunderground v.1.15,2013-04-19 16:46:00,
2013-04-19 11:51:00,36.1,30.5,29.70,WNW,289,21.0,26.0,80,0.00,,,0.00,Wunderground v.1.15,2013-04-19 16:51:00,
2013-04-19 11:56:00,36.2,30.3,29.70,NW,306,13.0,26.0,79,0.00,,,0.00,Wunderground v.1.15,2013-04-19 16:56:00,
2013-04-19 12:01:00,36.3,31.0,29.70,WNW,291,13.0,21.0,81,0.00,,,0.00,Wunderground v.1.15,2013-04-19 17:01:00,
2013-04-19 12:06:00,36.5,31.2,29.70,WNW,289,22.0,22.0,81,0.00,,,0.00,Wunderground v.1.15,2013-04-19 17:06:00,
2013-04-19 12:11:00,36.4,31.1,29.71,WNW,292,18.0,18.0,81,0.00,,,0.00,Wunderground v.1.15,2013-04-19 17:11:00,
2013-04-19 12:16:00,36.3,30.7,29.70,WNW,291,22.0,27.0,80,0.00,,,0.00,Wunderground v.1.15,2013-04-19 17:16:00,
2013-04-19 12:21:00,36.1,30.5,29.71,WNW,299,13.0,18.0,80,0.00,,,0.00,Wunderground v.1.15,2013-04-19 17:21:00,
2013-04-19 12:26:00,35.9,30.3,29.71,West,278,12.0,23.0,80,0.00,,,0.00,Wunderground v.1.15,2013-04-19 17:26:00,
2013-04-19 12:31:00,35.7,30.1,29.71,WNW,293,17.0,27.0,80,0.00,,,0.00,Wunderground v.1.15,2013-04-19 17:31:00,
2013-04-19 12:36:00,36.0,30.4,29.71,WNW,287,21.0,29.0,80,0.00,,,0.00,Wunderground v.1.15,2013-04-19 17:36:00,
2013-04-19 12:41:00,36.6,31.0,29.71,WNW,291,19.0,28.0,80,0.00,,,0.00,Wunderground v.1.15,2013-04-19 17:41:00,
2013-04-19 12:46:00,36.8,30.3,29.72,NW,309,23.0,33.0,77,0.00,,,0.00,Wunderground v.1.15,2013-04-19 17:46:00,
2013-04-19 12:51:00,36.7,30.5,29.71,WNW,296,20.0,27.0,78,0.00,,,0.00,Wunderground v.1.15,2013-04-19 17:51:00,
2013-04-19 12:56:00,37.2,31.9,29.71,West,265,15.0,32.0,81,0.00,,,0.00,Wunderground v.1.15,2013-04-19 17:56:00,
2013-04-19 13:01:00,37.4,31.2,29.72,WNW,294,26.0,26.0,78,0.00,,,0.00,Wunderground v.1.15,2013-04-19 18:01:00,
2013-04-19 13:07:00,37.4,31.2,29.72,NW,312,17.0,30.0,78,0.00,,,0.00,Wunderground v.1.15,2013-04-19 18:07:00,
2013-04-19 13:12:00,37.3,30.7,29.72,WNW,296,22.0,30.0,77,0.00,,,0.00,Wunderground v.1.15,2013-04-19 18:12:00,
2013-04-19 13:17:00,37.5,30.9,29.72,WNW,293,24.0,30.0,77,0.00,,,0.00,Wunderground v.1.15,2013-04-19 18:17:00,
2013-04-19 13:22:00,37.5,30.3,29.72,NW,312,25.0,30.0,75,0.00,,,0.00,Wunderground v.1.15,2013-04-19 18:22:00,
2013-04-19 13:27:00,37.7,30.5,29.73,WNW,301,19.0,30.0,75,0.00,,,0.00,Wunderground v.1.15,2013-04-19 18:27:00,
2013-04-19 13:32:00,37.6,30.4,29.73,WNW,292,21.0,25.0,75,0.00,,,0.00,Wunderground v.1.15,2013-04-19 18:32:00,
2013-04-19 13:37:00,37.4,29.9,29.73,WNW,293,20.0,31.0,74,0.00,,,0.00,Wunderground v.1.15,2013-04-19 18:37:00,
2013-04-19 13:42:00,37.5,30.0,29.73,WNW,296,19.0,31.0,74,0.00,,,0.00,Wunderground v.1.15,2013-04-19 18:42:00,
2013-04-19 13:47:00,37.7,30.2,29.73,WNW,294,20.0,33.0,74,0.00,,,0.00,Wunderground v.1.15,2013-04-19 18:47:00,
2013-04-19 13:52:00,37.7,29.8,29.73,WNW,302,24.0,31.0,73,0.00,,,0.00,Wunderground v.1.15,2013-04-19 18:52:00,
2013-04-19 13:57:00,37.7,30.2,29.74,NW,305,19.0,31.0,74,0.00,,,0.00,Wunderground v.1.15,2013-04-19 18:57:00,
2013-04-19 14:03:00,38.0,30.1,29.74,WNW,300,22.0,33.0,73,0.00,,,0.00,Wunderground v.1.15,2013-04-19 19:03:00,
2013-04-19 14:08:00,37.9,30.4,29.74,NW,315,20.0,33.0,74,0.00,,,0.00,Wunderground v.1.15,2013-04-19 19:08:00,
2013-04-19 14:13:00,38.1,30.9,29.74,NW,306,21.0,26.0,75,0.00,,,0.00,Wunderground v.1.15,2013-04-19 19:13:00,
2013-04-19 14:18:00,38.1,30.5,29.75,WNW,301,31.0,31.0,74,0.00,,,0.00,Wunderground v.1.15,2013-04-19 19:18:00,
2013-04-19 14:23:00,38.2,30.3,29.75,NW,306,23.0,33.0,73,0.00,,,0.00,Wunderground v.1.15,2013-04-19 19:23:00,
2013-04-19 14:28:00,38.2,30.3,29.75,WNW,301,20.0,33.0,73,0.00,,,0.00,Wunderground v.1.15,2013-04-19 19:28:00,
2013-04-19 14:33:00,38.3,31.1,29.75,WNW,298,19.0,23.0,75,0.00,,,0.00,Wunderground v.1.15,2013-04-19 19:33:00,
2013-04-19 14:38:00,38.3,31.4,29.75,WNW,292,26.0,28.0,76,0.00,,,0.00,Wunderground v.1.15,2013-04-19 19:38:00,
2013-04-19 14:43:00,38.3,30.1,29.76,WNW,294,23.0,33.0,72,0.00,,,0.00,Wunderground v.1.15,2013-04-19 19:43:00,
2013-04-19 14:49:00,38.3,30.7,29.76,West,279,27.0,33.0,74,0.00,,,0.00,Wunderground v.1.15,2013-04-19 19:49:00,
2013-04-19 14:54:00,38.0,30.1,29.76,WNW,286,27.0,31.0,73,0.00,,,0.00,Wunderground v.1.15,2013-04-19 19:54:00,
2013-04-19 14:59:00,38.1,30.5,29.76,West,276,17.0,31.0,74,0.00,,,0.00,Wunderground v.1.15,2013-04-19 19:59:00,
2013-04-19 15:04:00,38.0,30.4,29.76,WNW,294,25.0,33.0,74,0.00,,,0.00,Wunderground v.1.15,2013-04-19 20:04:00,
2013-04-19 15:09:00,38.1,30.9,29.77,WNW,300,19.0,33.0,75,0.00,,,0.00,Wunderground v.1.15,2013-04-19 20:09:00,
2013-04-19 15:14:00,38.1,30.5,29.77,WNW,297,20.0,29.0,74,0.00,,,0.00,Wunderground v.1.15,2013-04-19 20:14:00,
2013-04-19 15:19:00,38.3,30.4,29.77,WNW,299,20.0,29.0,73,0.00,,,0.00,Wunderground v.1.15,2013-04-19 20:19:00,
2013-04-19 15:24:00,38.2,30.6,29.77,WNW,302,21.0,29.0,74,0.00,,,0.00,Wunderground v.1.15,2013-04-19 20:24:00,
2013-04-19 15:29:00,38.0,30.1,29.77,NW,306,22.0,29.0,73,0.00,,,0.00,Wunderground v.1.15,2013-04-19 20:29:00,
2013-04-19 15:34:00,37.9,30.0,29.77,WNW,299,28.0,30.0,73,0.00,,,0.00,Wunderground v.1.15,2013-04-19 20:34:00,
2013-04-19 15:39:00,37.9,29.3,29.78,WNW,298,21.0,33.0,71,0.00,,,0.00,Wunderground v.1.15,2013-04-19 20:39:00,
2013-04-19 15:44:00,37.8,30.3,29.78,WNW,301,29.0,30.0,74,0.00,,,0.00,Wunderground v.1.15,2013-04-19 20:44:00,
2013-04-19 15:49:00,37.5,29.6,29.79,WNW,298,20.0,31.0,73,0.00,,,0.00,Wunderground v.1.15,2013-04-19 20:49:00,
2013-04-19 15:54:00,37.4,29.5,29.79,NW,306,26.0,33.0,73,0.00,,,0.00,Wunderground v.1.15,2013-04-19 20:54:00,
2013-04-19 15:59:00,37.5,29.3,29.79,NW,308,17.0,34.0,72,0.00,,,0.00,Wunderground v.1.15,2013-04-19 20:59:00,
2013-04-19 16:04:00,37.8,30.3,29.79,NW,306,31.0,33.0,74,0.00,,,0.00,Wunderground v.1.15,2013-04-19 21:04:00,
2013-04-19 16:09:00,37.6,29.4,29.80,WNW,296,23.0,33.0,72,0.00,,,0.00,Wunderground v.1.15,2013-04-19 21:09:00,
2013-04-19 16:14:00,37.8,29.6,29.80,NW,318,21.0,32.0,72,0.00,,,0.00,Wunderground v.1.15,2013-04-19 21:14:00,
2013-04-19 16:19:00,38.0,29.8,29.81,NW,308,21.0,32.0,72,0.00,,,0.00,Wunderground v.1.15,2013-04-19 21:19:00,
2013-04-19 16:24:00,37.9,29.3,29.81,NW,307,29.0,33.0,71,0.00,,,0.00,Wunderground v.1.15,2013-04-19 21:24:00,
2013-04-19 16:29:00,38.0,29.4,29.81,NW,316,19.0,33.0,71,0.00,,,0.00,Wunderground v.1.15,2013-04-19 21:29:00,
2013-04-19 16:34:00,38.0,29.1,29.81,NNW,327,23.0,33.0,70,0.00,,,0.00,Wunderground v.1.15,2013-04-19 21:34:00,
2013-04-19 16:39:00,37.8,28.9,29.82,NW,315,22.0,33.0,70,0.00,,,0.00,Wunderground v.1.15,2013-04-19 21:39:00,
2013-04-19 16:44:00,37.5,28.6,29.82,NW,309,23.0,29.0,70,0.00,,,0.00,Wunderground v.1.15,2013-04-19 21:44:00,
2013-04-19 16:49:00,37.6,29.0,29.83,WNW,298,27.0,33.0,71,0.00,,,0.00,Wunderground v.1.15,2013-04-19 21:49:00,
2013-04-19 16:54:00,37.6,28.7,29.83,WNW,286,20.0,29.0,70,0.00,,,0.00,Wunderground v.1.15,2013-04-19 21:54:00,
2013-04-19 16:59:00,37.5,28.6,29.83,NW,311,23.0,30.0,70,0.00,,,0.00,Wunderground v.1.15,2013-04-19 21:59:00,
2013-04-19 17:04:00,37.4,28.2,29.83,NW,310,18.0,29.0,69,0.00,,,0.00,Wunderground v.1.15,2013-04-19 22:04:00,
2013-04-19 17:09:00,37.3,28.4,29.84,WNW,303,18.0,29.0,70,0.00,,,0.00,Wunderground v.1.15,2013-04-19 22:09:00,
2013-04-19 17:14:00,37.4,29.5,29.84,WNW,294,19.0,24.0,73,0.00,,,0.00,Wunderground v.1.15,2013-04-19 22:14:00,
2013-04-19 17:19:00,37.5,29.6,29.85,WNW,291,25.0,29.0,73,0.00,,,0.00,Wunderground v.1.15,2013-04-19 22:19:00,
2013-04-19 17:24:00,37.3,28.8,29.84,NW,318,21.0,27.0,71,0.00,,,0.00,Wunderground v.1.15,2013-04-19 22:24:00,
2013-04-19 17:29:00,37.3,29.1,29.85,WNW,283,20.0,27.0,72,0.00,,,0.00,Wunderground v.1.15,2013-04-19 22:29:00,
2013-04-19 17:34:00,37.3,28.8,29.85,NNW,331,22.0,29.0,71,0.00,,,0.00,Wunderground v.1.15,2013-04-19 22:34:00,
2013-04-19 17:39:00,37.4,28.9,29.85,WNW,301,22.0,30.0,71,0.00,,,0.00,Wunderground v.1.15,2013-04-19 22:39:00,
2013-04-19 17:44:00,37.4,29.2,29.86,WNW,297,20.0,25.0,72,0.00,,,0.00,Wunderground v.1.15,2013-04-19 22:44:00,
2013-04-19 17:49:00,37.5,29.3,29.86,WNW,297,17.0,25.0,72,0.00,,,0.00,Wunderground v.1.15,2013-04-19 22:49:00,
2013-04-19 17:54:00,37.5,28.6,29.86,NW,309,21.0,30.0,70,0.00,,,0.00,Wunderground v.1.15,2013-04-19 22:54:00,
2013-04-19 17:59:00,37.4,28.5,29.87,NW,306,21.0,30.0,70,0.00,,,0.00,Wunderground v.1.15,2013-04-19 22:59:00,
2013-04-19 18:04:00,37.3,28.8,29.87,NW,307,29.0,29.0,71,0.00,,,0.00,Wunderground v.1.15,2013-04-19 23:04:00,
2013-04-19 18:10:00,37.2,29.0,29.87,WNW,302,26.0,29.0,72,0.00,,,0.00,Wunderground v.1.15,2013-04-19 23:10:00,
2013-04-19 18:14:00,37.1,28.6,29.88,NW,315,20.0,24.0,71,0.00,,,0.00,Wunderground v.1.15,2013-04-19 23:14:00,
2013-04-19 18:20:00,37.1,28.6,29.88,WNW,302,24.0,29.0,71,0.00,,,0.00,Wunderground v.1.15,2013-04-19 23:20:00,
2013-04-19 18:25:00,37.1,28.9,29.88,WNW,302,24.0,24.0,72,0.00,,,0.00,Wunderground v.1.15,2013-04-19 23:25:00,
2013-04-19 18:30:00,37.0,28.8,29.88,WNW,299,21.0,30.0,72,0.00,,,0.00,Wunderground v.1.15,2013-04-19 23:30:00,
2013-04-19 18:35:00,36.9,28.7,29.89,NW,309,22.0,30.0,72,0.00,,,0.00,Wunderground v.1.15,2013-04-19 23:35:00,
2013-04-19 18:40:00,36.8,28.6,29.89,NW,306,20.0,20.0,72,0.00,,,0.00,Wunderground v.1.15,2013-04-19 23:40:00,
2013-04-19 18:45:00,36.9,28.7,29.89,NW,314,19.0,28.0,72,0.00,,,0.00,Wunderground v.1.15,2013-04-19 23:45:00,
2013-04-19 18:50:00,36.8,28.6,29.89,WNW,293,17.0,20.0,72,0.00,,,0.00,Wunderground v.1.15,2013-04-19 23:50:00,
2013-04-19 18:55:00,36.7,28.5,29.90,WNW,300,20.0,26.0,72,0.00,,,0.00,Wunderground v.1.15,2013-04-19 23:55:00,
2013-04-19 19:00:00,36.6,28.8,29.90,WNW,288,17.0,26.0,73,0.00,,,0.00,Wunderground v.1.15,2013-04-20 00:00:00,
2013-04-19 19:05:00,36.6,28.8,29.90,NW,306,22.0,26.0,73,0.00,,,0.00,Wunderground v.1.15,2013-04-20 00:05:00,
2013-04-19 19:10:00,36.5,28.7,29.90,WNW,303,19.0,21.0,73,0.00,,,0.00,Wunderground v.1.15,2013-04-20 00:10:00,
2013-04-19 19:15:00,36.4,28.6,29.91,WNW,294,24.0,24.0,73,0.00,,,0.00,Wunderground v.1.15,2013-04-20 00:15:00,
2013-04-19 19:20:00,36.4,28.9,29.91,NW,304,22.0,22.0,74,0.00,,,0.00,Wunderground v.1.15,2013-04-20 00:20:00,
2013-04-19 19:25:00,36.4,28.9,29.91,WNW,299,15.0,22.0,74,0.00,,,0.00,Wunderground v.1.15,2013-04-20 00:25:00,
2013-04-19 19:30:00,36.3,29.1,29.92,NW,309,17.0,17.0,75,0.00,,,0.00,Wunderground v.1.15,2013-04-20 00:30:00,
2013-04-19 19:36:00,36.2,29.4,29.92,NW,304,20.0,21.0,76,0.00,,,0.00,Wunderground v.1.15,2013-04-20 00:36:00,
2013-04-19 19:41:00,36.2,29.0,29.92,NW,306,15.0,23.0,75,0.00,,,0.00,Wunderground v.1.15,2013-04-20 00:41:00,
2013-04-19 19:46:00,36.2,29.0,29.92,WNW,299,12.0,23.0,75,0.00,,,0.00,Wunderground v.1.15,2013-04-20 00:46:00,
2013-04-19 19:51:00,36.1,29.3,29.92,WNW,295,17.0,19.0,76,0.00,,,0.00,Wunderground v.1.15,2013-04-20 00:51:00,
2013-04-19 19:56:00,36.2,29.0,29.92,WNW,302,12.0,23.0,75,0.00,,,0.00,Wunderground v.1.15,2013-04-20 00:56:00,
2013-04-19 20:01:00,36.1,29.3,29.93,NW,308,13.0,16.0,76,0.00,,,0.00,Wunderground v.1.15,2013-04-20 01:01:00,
2013-04-19 20:06:00,36.1,28.9,29.93,NW,306,17.0,21.0,75,0.00,,,0.00,Wunderground v.1.15,2013-04-20 01:06:00,
2013-04-19 20:11:00,36.1,28.9,29.93,NW,309,13.0,22.0,75,0.00,,,0.00,Wunderground v.1.15,2013-04-20 01:11:00,
2013-04-19 20:16:00,36.1,28.9,29.93,NW,309,15.0,22.0,75,0.00,,,0.00,Wunderground v.1.15,2013-04-20 01:16:00,
2013-04-19 20:21:00,36.1,29.3,29.94,NW,304,14.0,17.0,76,0.00,,,0.00,Wunderground v.1.15,2013-04-20 01:21:00,
2013-04-19 20:26:00,36.0,29.5,29.94,WNW,289,13.0,17.0,77,0.00,,,0.00,Wunderground v.1.15,2013-04-20 01:26:00,
2013-04-19 20:31:00,35.9,29.4,29.94,WNW,292,14.0,17.0,77,0.00,,,0.00,Wunderground v.1.15,2013-04-20 01:31:00,
2013-04-19 20:36:00,35.9,29.4,29.95,WNW,296,11.0,17.0,77,0.00,,,0.00,Wunderground v.1.15,2013-04-20 01:36:00,
2013-04-19 20:41:00,35.8,29.6,29.95,WNW,284,14.0,16.0,78,0.00,,,0.00,Wunderground v.1.15,2013-04-20 01:41:00,
2013-04-19 20:46:00,35.8,29.0,29.95,WNW,302,16.0,20.0,76,0.00,,,0.00,Wunderground v.1.15,2013-04-20 01:46:00,
2013-04-19 20:51:00,35.7,28.9,29.95,WNW,296,13.0,14.0,76,0.00,,,0.00,Wunderground v.1.15,2013-04-20 01:51:00,
2013-04-19 20:56:00,35.6,28.8,29.95,WNW,292,17.0,25.0,76,0.00,,,0.00,Wunderground v.1.15,2013-04-20 01:56:00,
2013-04-19 21:02:00,35.7,28.9,29.96,WNW,301,19.0,19.0,76,0.00,,,0.00,Wunderground v.1.15,2013-04-20 02:02:00,
2013-04-19 21:06:00,35.6,28.8,29.96,WNW,300,14.0,20.0,76,0.00,,,0.00,Wunderground v.1.15,2013-04-20 02:06:00,
2013-04-19 21:11:00,35.6,29.1,29.96,WNW,290,12.0,16.0,77,0.00,,,0.00,Wunderground v.1.15,2013-04-20 02:11:00,
2013-04-19 21:16:00,35.5,29.0,29.97,WNW,293,14.0,19.0,77,0.00,,,0.00,Wunderground v.1.15,2013-04-20 02:16:00,
2013-04-19 21:21:00,35.3,28.8,29.97,WNW,292,17.0,17.0,77,0.00,,,0.00,Wunderground v.1.15,2013-04-20 02:21:00,
2013-04-19 21:26:00,35.2,29.0,29.97,West,276,12.0,19.0,78,0.00,,,0.00,Wunderground v.1.15,2013-04-20 02:26:00,
2013-04-19 21:31:00,35.0,28.8,29.98,WNW,294,14.0,18.0,78,0.00,,,0.00,Wunderground v.1.15,2013-04-20 02:31:00,
2013-04-19 21:36:00,34.9,28.7,29.98,WNW,290,15.0,18.0,78,0.00,,,0.00,Wunderground v.1.15,2013-04-20 02:36:00,
2013-04-19 21:42:00,34.8,28.6,29.98,WNW,284,12.0,16.0,78,0.00,,,0.00,Wunderground v.1.15,2013-04-20 02:42:00,
2013-04-19 21:47:00,34.7,28.2,29.98,WNW,302,15.0,18.0,77,0.00,,,0.00,Wunderground v.1.15,2013-04-20 02:47:00,
2013-04-19 21:52:00,34.6,28.1,29.99,NW,305,12.0,14.0,77,0.00,,,0.00,Wunderground v.1.15,2013-04-20 02:52:00,
2013-04-19 21:57:00,34.4,27.9,29.99,WNW,296,17.0,17.0,77,0.00,,,0.00,Wunderground v.1.15,2013-04-20 02:57:00,
2013-04-19 22:02:00,34.4,28.2,29.99,WNW,296,12.0,17.0,78,0.00,,,0.00,Wunderground v.1.15,2013-04-20 03:02:00,
2013-04-19 22:07:00,34.4,28.2,29.99,WNW,299,14.0,17.0,78,0.00,,,0.00,Wunderground v.1.15,2013-04-20 03:07:00,
2013-04-19 22:12:00,34.4,28.2,29.99,WNW,290,14.0,15.0,78,0.00,,,0.00,Wunderground v.1.15,2013-04-20 03:12:00,
2013-04-19 22:17:00,34.4,28.2,29.99,WNW,290,14.0,19.0,78,0.00,,,0.00,Wunderground v.1.15,2013-04-20 03:17:00,
2013-04-19 22:22:00,34.3,28.2,29.99,WNW,291,12.0,16.0,78,0.00,,,0.00,Wunderground v.1.15,2013-04-20 03:22:00,
2013-04-19 22:27:00,34.2,28.1,29.99,WNW,290,11.0,16.0,78,0.00,,,0.00,Wunderground v.1.15,2013-04-20 03:27:00,
2013-04-19 22:32:00,34.0,28.2,30.00,WNW,294,10.0,14.0,79,0.00,,,0.00,Wunderground v.1.15,2013-04-20 03:32:00,
2013-04-19 22:37:00,34.0,28.2,30.00,WNW,291,11.0,17.0,79,0.00,,,0.00,Wunderground v.1.15,2013-04-20 03:37:00,
2013-04-19 22:42:00,33.9,28.1,29.99,WNW,300,12.0,16.0,79,0.00,,,0.00,Wunderground v.1.15,2013-04-20 03:42:00,
2013-04-19 22:47:00,33.8,28.0,30.00,WNW,290,12.0,16.0,79,0.00,,,0.00,Wunderground v.1.15,2013-04-20 03:47:00,
2013-04-19 22:52:00,33.8,28.3,30.00,WNW,298,10.0,12.0,80,0.00,,,0.00,Wunderground v.1.15,2013-04-20 03:52:00,
2013-04-19 22:57:00,33.7,28.2,30.00,WNW,302,10.0,15.0,80,0.00,,,0.00,Wunderground v.1.15,2013-04-20 03:57:00,
2013-04-19 23:01:00,33.6,28.1,30.00,WNW,297,10.0,11.0,80,0.00,,,0.00,Wunderground v.1.15,2013-04-20 04:01:00,
2013-04-19 23:06:00,33.5,28.3,30.00,WNW,296,11.0,13.0,81,0.00,,,0.00,Wunderground v.1.15,2013-04-20 04:06:00,
2013-04-19 23:11:00,33.4,28.2,30.00,WNW,296,10.0,11.0,81,0.00,,,0.00,Wunderground v.1.15,2013-04-20 04:11:00,
2013-04-19 23:16:00,33.5,28.3,30.00,NW,307,10.0,17.0,81,0.00,,,0.00,Wunderground v.1.15,2013-04-20 04:16:00,
2013-04-19 23:21:00,33.5,28.3,30.00,NW,304,10.0,13.0,81,0.00,,,0.00,Wunderground v.1.15,2013-04-20 04:21:00,
2013-04-19 23:26:00,33.4,28.2,30.01,WNW,300,8.0,16.0,81,0.00,,,0.00,Wunderground v.1.15,2013-04-20 04:26:00,
2013-04-19 23:31:00,33.4,28.2,30.01,WNW,297,11.0,12.0,81,0.00,,,0.00,Wunderground v.1.15,2013-04-20 04:31:00,
2013-04-19 23:36:00,33.4,28.2,30.01,WNW,297,10.0,14.0,81,0.00,,,0.00,Wunderground v.1.15,2013-04-20 04:36:00,
2013-04-19 23:41:00,33.3,28.1,30.01,WNW,298,13.0,13.0,81,0.00,,,0.00,Wunderground v.1.15,2013-04-20 04:41:00,
2013-04-19 23:46:00,33.2,28.3,30.02,WNW,298,10.0,14.0,82,0.00,,,0.00,Wunderground v.1.15,2013-04-20 04:46:00,
2013-04-19 23:51:00,33.1,28.2,30.02,WNW,290,9.0,10.0,82,0.00,,,0.00,Wunderground v.1.15,2013-04-20 04:51:00,
2013-04-19 23:56:00,32.9,28.0,30.02,WNW,288,7.0,12.0,82,0.00,,,0.00,Wunderground v.1.15,2013-04-20 04:56:00,